owner,sensor,date,latitude,longitude,vertical_datum,sea_water_temperature,qcFlag 
NERRS,ioos:station:NOAA.NERRS:gndbcwq:1,2017-03-02T15:45:00Z,30.3836,-88.4364,0.0,19.4,2 
NERRS,ioos:station:NOAA.NERRS:gndbcwq:1,2017-03-02T16:45:00Z,30.3836,-88.4364,0.0,19.5,2 
NERRS,ioos:station:NOAA.NERRS:gndbcwq:1,2017-03-02T17:45:00Z,30.3836,-88.4364,0.0,19.8,2 
NERRS,ioos:station:NOAA.NERRS:gndbcwq:1,2017-03-02T18:45:00Z,30.3836,-88.4364,0.0,20.1,2 
NERRS,ioos:station:NOAA.NERRS:gndbcwq:1,2017-03-02T19:45:00Z,30.3836,-88.4364,0.0,20.3,2 
NERRS,ioos:station:NOAA.NERRS:gndbcwq:1,2017-03-02T20:45:00Z,30.3836,-88.4364,0.0,20.4,2 
NERRS,ioos:station:NOAA.NERRS:gndbcwq:1,2017-03-02T21:45:00Z,30.3836,-88.4364,0.0,20.8,2 
NERRS,ioos:station:NOAA.NERRS:gndbcwq:1,2017-03-02T22:00:00Z,30.3836,-88.4364,0.0,21.1,2 
NERRS,ioos:station:NOAA.NERRS:gndbcwq:1,2017-03-03T14:45:00Z,30.3836,-88.4364,0.0,18.8,2 
NERRS,ioos:station:NOAA.NERRS:gndbcwq:1,2017-03-03T15:45:00Z,30.3836,-88.4364,0.0,18.8,2 
NERRS,ioos:station:NOAA.NERRS:gndbcwq:1,2017-03-03T16:45:00Z,30.3836,-88.4364,0.0,18.7,2 
NERRS,ioos:station:NOAA.NERRS:gndbcwq:1,2017-03-03T17:45:00Z,30.3836,-88.4364,0.0,18.1,2 
NERRS,ioos:station:NOAA.NERRS:gndbcwq:1,2017-03-03T18:45:00Z,30.3836,-88.4364,0.0,18.2,2 
NERRS,ioos:station:NOAA.NERRS:gndbcwq:1,2017-03-03T19:45:00Z,30.3836,-88.4364,0.0,18.4,2 
NERRS,ioos:station:NOAA.NERRS:gndbcwq:1,2017-03-03T20:45:00Z,30.3836,-88.4364,0.0,18.6,2 
NERRS,ioos:station:NOAA.NERRS:gndbcwq:1,2017-03-03T21:15:00Z,30.3836,-88.4364,0.0,18.7,2 
NERRS,ioos:station:NOAA.NERRS:gndbcwq:1,2017-03-04T14:45:00Z,30.3836,-88.4364,0.0,17.2,2 
NERRS,ioos:station:NOAA.NERRS:gndbcwq:1,2017-03-04T15:45:00Z,30.3836,-88.4364,0.0,17.2,2 
NERRS,ioos:station:NOAA.NERRS:gndbcwq:1,2017-03-04T16:45:00Z,30.3836,-88.4364,0.0,17.3,2 
NERRS,ioos:station:NOAA.NERRS:gndbcwq:1,2017-03-04T17:45:00Z,30.3836,-88.4364,0.0,17.5,2 
NERRS,ioos:station:NOAA.NERRS:gndbcwq:1,2017-03-04T18:45:00Z,30.3836,-88.4364,0.0,17.4,2 
NERRS,ioos:station:NOAA.NERRS:gndbcwq:1,2017-03-04T19:45:00Z,30.3836,-88.4364,0.0,17.5,2 
NERRS,ioos:station:NOAA.NERRS:gndbcwq:1,2017-03-04T20:45:00Z,30.3836,-88.4364,0.0,18.6,2 
NERRS,ioos:station:NOAA.NERRS:gndbcwq:1,2017-03-04T21:15:00Z,30.3836,-88.4364,0.0,18.5,2 
NERRS,ioos:station:NOAA.NERRS:gndbcwq:1,2017-03-05T18:45:00Z,30.3836,-88.4364,0.0,17.2,2 
NERRS,ioos:station:NOAA.NERRS:gndbcwq:1,2017-03-05T19:30:00Z,30.3836,-88.4364,0.0,17.1,2 
NERRS,ioos:station:NOAA.NERRS:gndbcwq:1,2017-03-06T14:45:00Z,30.3836,-88.4364,0.0,17.7,2 
NERRS,ioos:station:NOAA.NERRS:gndbcwq:1,2017-03-06T15:45:00Z,30.3836,-88.4364,0.0,18.0,2 
NERRS,ioos:station:NOAA.NERRS:gndbcwq:1,2017-03-06T16:45:00Z,30.3836,-88.4364,0.0,18.2,2 
NERRS,ioos:station:NOAA.NERRS:gndbcwq:1,2017-03-06T17:45:00Z,30.3836,-88.4364,0.0,18.3,2 
NERRS,ioos:station:NOAA.NERRS:gndbcwq:1,2017-03-06T18:45:00Z,30.3836,-88.4364,0.0,18.5,2 
NERRS,ioos:station:NOAA.NERRS:gndbcwq:1,2017-03-06T19:45:00Z,30.3836,-88.4364,0.0,18.8,2 
NERRS,ioos:station:NOAA.NERRS:gndbcwq:1,2017-03-06T20:00:00Z,30.3836,-88.4364,0.0,18.9,2 
NERRS,ioos:station:NOAA.NERRS:gndbcwq:1,2017-03-07T15:45:00Z,30.3836,-88.4364,0.0,19.2,2 
NERRS,ioos:station:NOAA.NERRS:gndbcwq:1,2017-03-07T16:45:00Z,30.3836,-88.4364,0.0,19.6,2 
NERRS,ioos:station:NOAA.NERRS:gndbcwq:1,2017-03-07T17:45:00Z,30.3836,-88.4364,0.0,20.1,2 
NERRS,ioos:station:NOAA.NERRS:gndbcwq:1,2017-03-07T18:45:00Z,30.3836,-88.4364,0.0,20.3,2 
NERRS,ioos:station:NOAA.NERRS:gndbcwq:1,2017-03-07T19:45:00Z,30.3836,-88.4364,0.0,20.6,2 
NERRS,ioos:station:NOAA.NERRS:gndbcwq:1,2017-03-07T20:45:00Z,30.3836,-88.4364,0.0,20.9,2 
NERRS,ioos:station:NOAA.NERRS:gndbcwq:1,2017-03-07T21:00:00Z,30.3836,-88.4364,0.0,20.9,2 
NERRS,ioos:station:NOAA.NERRS:gndbcwq:1,2017-03-08T14:45:00Z,30.3836,-88.4364,0.0,19.0,2 
NERRS,ioos:station:NOAA.NERRS:gndbcwq:1,2017-03-08T15:45:00Z,30.3836,-88.4364,0.0,19.3,2 
NERRS,ioos:station:NOAA.NERRS:gndbcwq:1,2017-03-08T16:45:00Z,30.3836,-88.4364,0.0,19.6,2 
NERRS,ioos:station:NOAA.NERRS:gndbcwq:1,2017-03-08T17:45:00Z,30.3836,-88.4364,0.0,19.8,2 
NERRS,ioos:station:NOAA.NERRS:gndbcwq:1,2017-03-08T18:45:00Z,30.3836,-88.4364,0.0,20.3,2 
NERRS,ioos:station:NOAA.NERRS:gndbcwq:1,2017-03-08T19:45:00Z,30.3836,-88.4364,0.0,21.0,2 
NERRS,ioos:station:NOAA.NERRS:gndbcwq:1,2017-03-08T20:45:00Z,30.3836,-88.4364,0.0,20.8,2 
NERRS,ioos:station:NOAA.NERRS:gndbcwq:1,2017-03-08T21:45:00Z,30.3836,-88.4364,0.0,21.4,2 
NERRS,ioos:station:NOAA.NERRS:gndbcwq:1,2017-03-08T22:45:00Z,30.3836,-88.4364,0.0,22.0,2 
NERRS,ioos:station:NOAA.NERRS:gndbcwq:1,2017-03-09T13:45:00Z,30.3836,-88.4364,0.0,18.7,2 
NERRS,ioos:station:NOAA.NERRS:gndbcwq:1,2017-03-09T14:45:00Z,30.3836,-88.4364,0.0,19.2,2 
NERRS,ioos:station:NOAA.NERRS:gndbcwq:1,2017-03-09T15:45:00Z,30.3836,-88.4364,0.0,19.8,2 
NERRS,ioos:station:NOAA.NERRS:gndbcwq:1,2017-03-09T16:45:00Z,30.3836,-88.4364,0.0,20.1,2 
NERRS,ioos:station:NOAA.NERRS:gndbcwq:1,2017-03-09T17:45:00Z,30.3836,-88.4364,0.0,20.6,2 
NERRS,ioos:station:NOAA.NERRS:gndbcwq:1,2017-03-09T18:45:00Z,30.3836,-88.4364,0.0,20.8,2 
NERRS,ioos:station:NOAA.NERRS:gndbcwq:1,2017-03-09T19:45:00Z,30.3836,-88.4364,0.0,21.1,2 
NERRS,ioos:station:NOAA.NERRS:gndbcwq:1,2017-03-09T20:45:00Z,30.3836,-88.4364,0.0,22.8,2 
NERRS,ioos:station:NOAA.NERRS:gndbcwq:1,2017-03-09T21:45:00Z,30.3836,-88.4364,0.0,24.2,2 
NERRS,ioos:station:NOAA.NERRS:gndbcwq:1,2017-03-09T22:15:00Z,30.3836,-88.4364,0.0,23.7,2 
NERRS,ioos:station:NOAA.NERRS:gndbcwq:1,2017-03-10T16:45:00Z,30.3836,-88.4364,0.0,21.2,2 
NERRS,ioos:station:NOAA.NERRS:gndbcwq:1,2017-03-10T17:45:00Z,30.3836,-88.4364,0.0,21.2,2 
NERRS,ioos:station:NOAA.NERRS:gndbcwq:1,2017-03-10T18:45:00Z,30.3836,-88.4364,0.0,21.6,2 
NERRS,ioos:station:NOAA.NERRS:gndbcwq:1,2017-03-10T19:45:00Z,30.3836,-88.4364,0.0,21.9,2 
NERRS,ioos:station:NOAA.NERRS:gndbcwq:1,2017-03-10T20:45:00Z,30.3836,-88.4364,0.0,22.1,2 
NERRS,ioos:station:NOAA.NERRS:gndbcwq:1,2017-03-10T21:45:00Z,30.3836,-88.4364,0.0,22.2,2 
NERRS,ioos:station:NOAA.NERRS:gndbcwq:1,2017-03-10T22:00:00Z,30.3836,-88.4364,0.0,21.9,2 
NERRS,ioos:station:NOAA.NERRS:gndbcwq:1,2017-03-11T13:45:00Z,30.3836,-88.4364,0.0,21.2,2 
NERRS,ioos:station:NOAA.NERRS:gndbcwq:1,2017-03-11T14:45:00Z,30.3836,-88.4364,0.0,21.2,2 
NERRS,ioos:station:NOAA.NERRS:gndbcwq:1,2017-03-11T15:45:00Z,30.3836,-88.4364,0.0,21.3,2 
NERRS,ioos:station:NOAA.NERRS:gndbcwq:1,2017-03-11T16:45:00Z,30.3836,-88.4364,0.0,21.3,2 
NERRS,ioos:station:NOAA.NERRS:gndbcwq:1,2017-03-11T17:45:00Z,30.3836,-88.4364,0.0,21.4,2 
NERRS,ioos:station:NOAA.NERRS:gndbcwq:1,2017-03-11T18:45:00Z,30.3836,-88.4364,0.0,21.4,2 
NERRS,ioos:station:NOAA.NERRS:gndbcwq:1,2017-03-11T19:45:00Z,30.3836,-88.4364,0.0,21.4,2 
NERRS,ioos:station:NOAA.NERRS:gndbcwq:1,2017-03-11T20:45:00Z,30.3836,-88.4364,0.0,21.7,2 
NERRS,ioos:station:NOAA.NERRS:gndbcwq:1,2017-03-11T21:45:00Z,30.3836,-88.4364,0.0,21.7,2 
NERRS,ioos:station:NOAA.NERRS:gndbcwq:1,2017-03-11T22:45:00Z,30.3836,-88.4364,0.0,21.5,2 
NERRS,ioos:station:NOAA.NERRS:gndbcwq:1,2017-03-11T23:00:00Z,30.3836,-88.4364,0.0,21.5,2 
NERRS,ioos:station:NOAA.NERRS:gndbcwq:1,2017-03-12T15:45:00Z,30.3836,-88.4364,0.0,18.5,2 
NERRS,ioos:station:NOAA.NERRS:gndbcwq:1,2017-03-12T16:45:00Z,30.3836,-88.4364,0.0,19.2,2 
NERRS,ioos:station:NOAA.NERRS:gndbcwq:1,2017-03-12T17:45:00Z,30.3836,-88.4364,0.0,19.2,2 
NERRS,ioos:station:NOAA.NERRS:gndbcwq:1,2017-03-12T18:45:00Z,30.3836,-88.4364,0.0,19.4,2 
NERRS,ioos:station:NOAA.NERRS:gndbcwq:1,2017-03-12T19:45:00Z,30.3836,-88.4364,0.0,19.8,2 
NERRS,ioos:station:NOAA.NERRS:gndbcwq:1,2017-03-12T20:45:00Z,30.3836,-88.4364,0.0,19.8,2 
NERRS,ioos:station:NOAA.NERRS:gndbcwq:1,2017-03-12T21:45:00Z,30.3836,-88.4364,0.0,19.9,2 
NERRS,ioos:station:NOAA.NERRS:gndbcwq:1,2017-03-12T22:00:00Z,30.3836,-88.4364,0.0,20.1,2 
NERRS,ioos:station:NOAA.NERRS:gndbcwq:1,2017-03-14T13:45:00Z,30.3836,-88.4364,0.0,15.5,2 
NERRS,ioos:station:NOAA.NERRS:gndbcwq:1,2017-03-14T14:45:00Z,30.3836,-88.4364,0.0,15.8,2 
NERRS,ioos:station:NOAA.NERRS:gndbcwq:1,2017-03-14T15:45:00Z,30.3836,-88.4364,0.0,15.9,2 
NERRS,ioos:station:NOAA.NERRS:gndbcwq:1,2017-03-14T16:45:00Z,30.3836,-88.4364,0.0,16.7,2 
NERRS,ioos:station:NOAA.NERRS:gndbcwq:1,2017-03-14T17:45:00Z,30.3836,-88.4364,0.0,17.5,2 
NERRS,ioos:station:NOAA.NERRS:gndbcwq:1,2017-03-14T18:45:00Z,30.3836,-88.4364,0.0,18.1,2 
NERRS,ioos:station:NOAA.NERRS:gndbcwq:1,2017-03-14T19:45:00Z,30.3836,-88.4364,0.0,18.2,2 
NERRS,ioos:station:NOAA.NERRS:gndbcwq:1,2017-03-14T20:45:00Z,30.3836,-88.4364,0.0,18.6,2 
NERRS,ioos:station:NOAA.NERRS:gndbcwq:1,2017-03-14T21:45:00Z,30.3836,-88.4364,0.0,18.7,2 
NERRS,ioos:station:NOAA.NERRS:gndbcwq:1,2017-03-15T12:45:00Z,30.3836,-88.4364,0.0,14.4,2 
NERRS,ioos:station:NOAA.NERRS:gndbcwq:1,2017-03-15T13:45:00Z,30.3836,-88.4364,0.0,14.6,2 
NERRS,ioos:station:NOAA.NERRS:gndbcwq:1,2017-03-15T14:45:00Z,30.3836,-88.4364,0.0,14.5,2 
NERRS,ioos:station:NOAA.NERRS:gndbcwq:1,2017-03-15T15:45:00Z,30.3836,-88.4364,0.0,14.6,2 
NERRS,ioos:station:NOAA.NERRS:gndbcwq:1,2017-03-15T16:45:00Z,30.3836,-88.4364,0.0,15.1,2 
NERRS,ioos:station:NOAA.NERRS:gndbcwq:1,2017-03-15T17:45:00Z,30.3836,-88.4364,0.0,15.7,2 
NERRS,ioos:station:NOAA.NERRS:gndbcwq:1,2017-03-15T18:45:00Z,30.3836,-88.4364,0.0,16.5,2 
NERRS,ioos:station:NOAA.NERRS:gndbcwq:1,2017-03-15T19:45:00Z,30.3836,-88.4364,0.0,18.1,2 
NERRS,ioos:station:NOAA.NERRS:gndbcwq:1,2017-03-15T20:45:00Z,30.3836,-88.4364,0.0,18.0,2 
NERRS,ioos:station:NOAA.NERRS:gndbcwq:1,2017-03-15T21:45:00Z,30.3836,-88.4364,0.0,18.1,2 
NERRS,ioos:station:NOAA.NERRS:gndbcwq:1,2017-03-16T12:45:00Z,30.3836,-88.4364,0.0,15.2,2 
NERRS,ioos:station:NOAA.NERRS:gndbcwq:1,2017-03-16T13:45:00Z,30.3836,-88.4364,0.0,15.5,2 
NERRS,ioos:station:NOAA.NERRS:gndbcwq:1,2017-03-16T14:45:00Z,30.3836,-88.4364,0.0,15.6,2 
NERRS,ioos:station:NOAA.NERRS:gndbcwq:1,2017-03-16T16:45:00Z,30.3836,-88.4364,0.0,16.0,2 
NERRS,ioos:station:NOAA.NERRS:gndbcwq:1,2017-03-16T17:45:00Z,30.3836,-88.4364,0.0,16.6,2 
NERRS,ioos:station:NOAA.NERRS:gndbcwq:1,2017-03-16T18:45:00Z,30.3836,-88.4364,0.0,17.5,2 
NERRS,ioos:station:NOAA.NERRS:gndbcwq:1,2017-03-16T19:45:00Z,30.3836,-88.4364,0.0,17.6,2 
NERRS,ioos:station:NOAA.NERRS:gndbcwq:1,2017-03-16T20:45:00Z,30.3836,-88.4364,0.0,17.9,2 
NERRS,ioos:station:NOAA.NERRS:gndbcwq:1,2017-03-16T22:30:00Z,30.3836,-88.4364,0.0,18.0,2 
NERRS,ioos:station:NOAA.NERRS:gndbcwq:1,2017-03-17T14:45:00Z,30.3836,-88.4364,0.0,16.0,2 
NERRS,ioos:station:NOAA.NERRS:gndbcwq:1,2017-03-17T15:45:00Z,30.3836,-88.4364,0.0,16.1,2 
NERRS,ioos:station:NOAA.NERRS:gndbcwq:1,2017-03-17T16:45:00Z,30.3836,-88.4364,0.0,15.9,2 
NERRS,ioos:station:NOAA.NERRS:gndbcwq:1,2017-03-17T17:45:00Z,30.3836,-88.4364,0.0,16.8,2 
NERRS,ioos:station:NOAA.NERRS:gndbcwq:1,2017-03-17T18:45:00Z,30.3836,-88.4364,0.0,17.3,2 
NERRS,ioos:station:NOAA.NERRS:gndbcwq:1,2017-03-17T19:45:00Z,30.3836,-88.4364,0.0,18.1,2 
NERRS,ioos:station:NOAA.NERRS:gndbcwq:1,2017-03-17T20:45:00Z,30.3836,-88.4364,0.0,19.6,2 
NERRS,ioos:station:NOAA.NERRS:gndbcwq:1,2017-03-18T12:45:00Z,30.3836,-88.4364,0.0,18.5,2 
NERRS,ioos:station:NOAA.NERRS:gndbcwq:1,2017-03-18T13:45:00Z,30.3836,-88.4364,0.0,17.5,2 
NERRS,ioos:station:NOAA.NERRS:gndbcwq:1,2017-03-18T14:45:00Z,30.3836,-88.4364,0.0,18.0,2 
NERRS,ioos:station:NOAA.NERRS:gndbcwq:1,2017-03-18T15:45:00Z,30.3836,-88.4364,0.0,18.7,2 
NERRS,ioos:station:NOAA.NERRS:gndbcwq:1,2017-03-18T16:45:00Z,30.3836,-88.4364,0.0,19.1,2 
NERRS,ioos:station:NOAA.NERRS:gndbcwq:1,2017-03-18T17:45:00Z,30.3836,-88.4364,0.0,20.4,2 
NERRS,ioos:station:NOAA.NERRS:gndbcwq:1,2017-03-18T18:45:00Z,30.3836,-88.4364,0.0,21.3,2 
NERRS,ioos:station:NOAA.NERRS:gndbcwq:1,2017-03-18T19:45:00Z,30.3836,-88.4364,0.0,22.2,2 
NERRS,ioos:station:NOAA.NERRS:gndbcwq:1,2017-03-18T20:45:00Z,30.3836,-88.4364,0.0,22.4,2 
NERRS,ioos:station:NOAA.NERRS:gndbcwq:1,2017-03-18T21:45:00Z,30.3836,-88.4364,0.0,22.2,2 
NERRS,ioos:station:NOAA.NERRS:gndbcwq:1,2017-03-19T11:45:00Z,30.3836,-88.4364,0.0,20.5,2 
NERRS,ioos:station:NOAA.NERRS:gndbcwq:1,2017-03-19T12:45:00Z,30.3836,-88.4364,0.0,20.2,2 
NERRS,ioos:station:NOAA.NERRS:gndbcwq:1,2017-03-19T13:45:00Z,30.3836,-88.4364,0.0,20.0,2 
NERRS,ioos:station:NOAA.NERRS:gndbcwq:1,2017-03-19T14:45:00Z,30.3836,-88.4364,0.0,19.9,2 
NERRS,ioos:station:NOAA.NERRS:gndbcwq:1,2017-03-19T15:45:00Z,30.3836,-88.4364,0.0,20.2,2 
NERRS,ioos:station:NOAA.NERRS:gndbcwq:1,2017-03-19T16:45:00Z,30.3836,-88.4364,0.0,20.6,2 
NERRS,ioos:station:NOAA.NERRS:gndbcwq:1,2017-03-19T17:45:00Z,30.3836,-88.4364,0.0,21.3,2 
NERRS,ioos:station:NOAA.NERRS:gndbcwq:1,2017-03-19T18:45:00Z,30.3836,-88.4364,0.0,22.0,2 
NERRS,ioos:station:NOAA.NERRS:gndbcwq:1,2017-03-19T19:45:00Z,30.3836,-88.4364,0.0,23.0,2 
NERRS,ioos:station:NOAA.NERRS:gndbcwq:1,2017-03-19T20:45:00Z,30.3836,-88.4364,0.0,23.2,2 
NERRS,ioos:station:NOAA.NERRS:gndbcwq:1,2017-03-20T12:45:00Z,30.3836,-88.4364,0.0,21.5,2 
NERRS,ioos:station:NOAA.NERRS:gndbcwq:1,2017-03-20T13:45:00Z,30.3836,-88.4364,0.0,21.6,2 
NERRS,ioos:station:NOAA.NERRS:gndbcwq:1,2017-03-20T14:45:00Z,30.3836,-88.4364,0.0,21.5,2 
NERRS,ioos:station:NOAA.NERRS:gndbcwq:1,2017-03-20T15:45:00Z,30.3836,-88.4364,0.0,21.7,2 
NERRS,ioos:station:NOAA.NERRS:gndbcwq:1,2017-03-20T16:45:00Z,30.3836,-88.4364,0.0,21.9,2 
NERRS,ioos:station:NOAA.NERRS:gndbcwq:1,2017-03-20T17:45:00Z,30.3836,-88.4364,0.0,23.9,2 
NERRS,ioos:station:NOAA.NERRS:gndbcwq:1,2017-03-20T18:45:00Z,30.3836,-88.4364,0.0,23.6,2 
NERRS,ioos:station:NOAA.NERRS:gndbcwq:1,2017-03-20T19:45:00Z,30.3836,-88.4364,0.0,23.4,2 
NERRS,ioos:station:NOAA.NERRS:gndbcwq:1,2017-03-20T20:45:00Z,30.3836,-88.4364,0.0,25.5,2 
NERRS,ioos:station:NOAA.NERRS:gndbcwq:1,2017-03-20T21:00:00Z,30.3836,-88.4364,0.0,25.5,2 
NERRS,ioos:station:NOAA.NERRS:gndbcwq:1,2017-03-21T13:45:00Z,30.3836,-88.4364,0.0,22.1,2 
NERRS,ioos:station:NOAA.NERRS:gndbcwq:1,2017-03-21T16:45:00Z,30.3836,-88.4364,0.0,23.2,2 
NERRS,ioos:station:NOAA.NERRS:gndbcwq:1,2017-03-21T17:45:00Z,30.3836,-88.4364,0.0,24.4,2 
NERRS,ioos:station:NOAA.NERRS:gndbcwq:1,2017-03-21T18:45:00Z,30.3836,-88.4364,0.0,24.0,2 
NERRS,ioos:station:NOAA.NERRS:gndbcwq:1,2017-03-21T20:45:00Z,30.3836,-88.4364,0.0,25.6,2 
NERRS,ioos:station:NOAA.NERRS:gndbcwq:1,2017-03-22T13:45:00Z,30.3836,-88.4364,0.0,22.5,2 
NERRS,ioos:station:NOAA.NERRS:gndbcwq:1,2017-03-22T14:45:00Z,30.3836,-88.4364,0.0,23.0,2 
NERRS,ioos:station:NOAA.NERRS:gndbcwq:1,2017-03-22T15:45:00Z,30.3836,-88.4364,0.0,23.5,2 
NERRS,ioos:station:NOAA.NERRS:gndbcwq:1,2017-03-22T16:45:00Z,30.3836,-88.4364,0.0,23.6,2 
NERRS,ioos:station:NOAA.NERRS:gndbcwq:1,2017-03-22T17:45:00Z,30.3836,-88.4364,0.0,24.2,2 
NERRS,ioos:station:NOAA.NERRS:gndbcwq:1,2017-03-22T18:45:00Z,30.3836,-88.4364,0.0,23.7,2 
NERRS,ioos:station:NOAA.NERRS:gndbcwq:1,2017-03-22T19:45:00Z,30.3836,-88.4364,0.0,25.6,2 
NERRS,ioos:station:NOAA.NERRS:gndbcwq:1,2017-03-22T20:45:00Z,30.3836,-88.4364,0.0,25.0,2 
NERRS,ioos:station:NOAA.NERRS:gndbcwq:1,2017-03-23T12:45:00Z,30.3836,-88.4364,0.0,24.2,2 
NERRS,ioos:station:NOAA.NERRS:gndbcwq:1,2017-03-23T13:45:00Z,30.3836,-88.4364,0.0,22.7,2 
NERRS,ioos:station:NOAA.NERRS:gndbcwq:1,2017-03-23T14:45:00Z,30.3836,-88.4364,0.0,23.1,2 
NERRS,ioos:station:NOAA.NERRS:gndbcwq:1,2017-03-23T15:45:00Z,30.3836,-88.4364,0.0,23.4,2 
NERRS,ioos:station:NOAA.NERRS:gndbcwq:1,2017-03-23T16:45:00Z,30.3836,-88.4364,0.0,23.7,2 
NERRS,ioos:station:NOAA.NERRS:gndbcwq:1,2017-03-23T17:45:00Z,30.3836,-88.4364,0.0,23.9,2 
NERRS,ioos:station:NOAA.NERRS:gndbcwq:1,2017-03-23T18:45:00Z,30.3836,-88.4364,0.0,24.3,2 
NERRS,ioos:station:NOAA.NERRS:gndbcwq:1,2017-03-23T19:45:00Z,30.3836,-88.4364,0.0,24.4,2 
NERRS,ioos:station:NOAA.NERRS:gndbcwq:1,2017-03-23T20:45:00Z,30.3836,-88.4364,0.0,23.9,2 
NERRS,ioos:station:NOAA.NERRS:gndbcwq:1,2017-03-23T21:45:00Z,30.3836,-88.4364,0.0,24.0,2 
NERRS,ioos:station:NOAA.NERRS:gndbcwq:1,2017-03-24T12:45:00Z,30.3836,-88.4364,0.0,22.7,2 
NERRS,ioos:station:NOAA.NERRS:gndbcwq:1,2017-03-24T13:45:00Z,30.3836,-88.4364,0.0,22.8,2 
NERRS,ioos:station:NOAA.NERRS:gndbcwq:1,2017-03-24T15:45:00Z,30.3836,-88.4364,0.0,23.0,2 
NERRS,ioos:station:NOAA.NERRS:gndbcwq:1,2017-03-24T16:45:00Z,30.3836,-88.4364,0.0,23.5,2 
NERRS,ioos:station:NOAA.NERRS:gndbcwq:1,2017-03-24T17:45:00Z,30.3836,-88.4364,0.0,23.6,2 
NERRS,ioos:station:NOAA.NERRS:gndbcwq:1,2017-03-24T19:45:00Z,30.3836,-88.4364,0.0,24.1,2 
NERRS,ioos:station:NOAA.NERRS:gndbcwq:1,2017-03-24T20:45:00Z,30.3836,-88.4364,0.0,23.7,2 
NERRS,ioos:station:NOAA.NERRS:gndbcwq:1,2017-03-24T21:45:00Z,30.3836,-88.4364,0.0,24.2,2 
NERRS,ioos:station:NOAA.NERRS:gndbcwq:1,2017-03-24T22:00:00Z,30.3836,-88.4364,0.0,24.3,2 
NERRS,ioos:station:NOAA.NERRS:gndbcwq:1,2017-03-25T12:45:00Z,30.3836,-88.4364,0.0,22.2,2 
NERRS,ioos:station:NOAA.NERRS:gndbcwq:1,2017-03-25T13:45:00Z,30.3836,-88.4364,0.0,21.8,2 
NERRS,ioos:station:NOAA.NERRS:gndbcwq:1,2017-03-25T14:45:00Z,30.3836,-88.4364,0.0,22.9,2 
NERRS,ioos:station:NOAA.NERRS:gndbcwq:1,2017-03-25T15:45:00Z,30.3836,-88.4364,0.0,23.1,2 
NERRS,ioos:station:NOAA.NERRS:gndbcwq:1,2017-03-25T16:45:00Z,30.3836,-88.4364,0.0,23.8,2 
NERRS,ioos:station:NOAA.NERRS:gndbcwq:1,2017-03-25T17:45:00Z,30.3836,-88.4364,0.0,23.8,2 
NERRS,ioos:station:NOAA.NERRS:gndbcwq:1,2017-03-25T18:45:00Z,30.3836,-88.4364,0.0,23.8,2 
NERRS,ioos:station:NOAA.NERRS:gndbcwq:1,2017-03-25T19:45:00Z,30.3836,-88.4364,0.0,23.9,2 
NERRS,ioos:station:NOAA.NERRS:gndbcwq:1,2017-03-25T20:45:00Z,30.3836,-88.4364,0.0,23.9,2 
NERRS,ioos:station:NOAA.NERRS:gndbcwq:1,2017-03-25T21:45:00Z,30.3836,-88.4364,0.0,23.8,2 
NERRS,ioos:station:NOAA.NERRS:gndbcwq:1,2017-03-25T22:00:00Z,30.3836,-88.4364,0.0,23.8,2 
NERRS,ioos:station:NOAA.NERRS:gndbcwq:1,2017-03-26T12:45:00Z,30.3836,-88.4364,0.0,22.3,2 
NERRS,ioos:station:NOAA.NERRS:gndbcwq:1,2017-03-26T13:45:00Z,30.3836,-88.4364,0.0,22.4,2 
NERRS,ioos:station:NOAA.NERRS:gndbcwq:1,2017-03-26T14:45:00Z,30.3836,-88.4364,0.0,22.6,2 
NERRS,ioos:station:NOAA.NERRS:gndbcwq:1,2017-03-26T15:45:00Z,30.3836,-88.4364,0.0,23.6,2 
NERRS,ioos:station:NOAA.NERRS:gndbcwq:1,2017-03-26T16:45:00Z,30.3836,-88.4364,0.0,24.5,2 
NERRS,ioos:station:NOAA.NERRS:gndbcwq:1,2017-03-26T17:45:00Z,30.3836,-88.4364,0.0,24.9,2 
NERRS,ioos:station:NOAA.NERRS:gndbcwq:1,2017-03-26T18:45:00Z,30.3836,-88.4364,0.0,24.8,2 
NERRS,ioos:station:NOAA.NERRS:gndbcwq:1,2017-03-26T19:45:00Z,30.3836,-88.4364,0.0,25.4,2 
NERRS,ioos:station:NOAA.NERRS:gndbcwq:1,2017-03-26T20:45:00Z,30.3836,-88.4364,0.0,26.2,2 
NERRS,ioos:station:NOAA.NERRS:gndbcwq:1,2017-03-26T21:45:00Z,30.3836,-88.4364,0.0,26.6,2 
NERRS,ioos:station:NOAA.NERRS:gndbcwq:1,2017-03-27T13:45:00Z,30.3836,-88.4364,0.0,24.0,2 
NERRS,ioos:station:NOAA.NERRS:gndbcwq:1,2017-03-27T14:45:00Z,30.3836,-88.4364,0.0,24.1,2 
NERRS,ioos:station:NOAA.NERRS:gndbcwq:1,2017-03-27T15:45:00Z,30.3836,-88.4364,0.0,24.7,2 
NERRS,ioos:station:NOAA.NERRS:gndbcwq:1,2017-03-27T16:45:00Z,30.3836,-88.4364,0.0,24.9,2 
NERRS,ioos:station:NOAA.NERRS:gndbcwq:1,2017-03-27T17:45:00Z,30.3836,-88.4364,0.0,25.4,2 
NERRS,ioos:station:NOAA.NERRS:gndbcwq:1,2017-03-27T18:45:00Z,30.3836,-88.4364,0.0,25.1,2 
NERRS,ioos:station:NOAA.NERRS:gndbcwq:1,2017-03-27T19:45:00Z,30.3836,-88.4364,0.0,26.0,2 
NERRS,ioos:station:NOAA.NERRS:gndbcwq:1,2017-03-27T20:45:00Z,30.3836,-88.4364,0.0,26.8,2 
NERRS,ioos:station:NOAA.NERRS:gndbcwq:1,2017-03-27T21:45:00Z,30.3836,-88.4364,0.0,27.0,2 
NERRS,ioos:station:NOAA.NERRS:gndbcwq:1,2017-03-27T22:00:00Z,30.3836,-88.4364,0.0,26.6,2 
NERRS,ioos:station:NOAA.NERRS:gndbcwq:1,2017-03-28T12:45:00Z,30.3836,-88.4364,0.0,24.6,2 
NERRS,ioos:station:NOAA.NERRS:gndbcwq:1,2017-03-28T13:45:00Z,30.3836,-88.4364,0.0,24.5,2 
NERRS,ioos:station:NOAA.NERRS:gndbcwq:1,2017-03-28T14:00:00Z,30.3836,-88.4364,0.0,24.5,2 
NERRS,ioos:station:NOAA.NERRS:gndbcwq:1,2017-03-28T15:45:00Z,30.3836,-88.4364,0.0,24.7,2 
NERRS,ioos:station:NOAA.NERRS:gndbcwq:1,2017-03-28T16:45:00Z,30.3836,-88.4364,0.0,24.9,2 
NERRS,ioos:station:NOAA.NERRS:gndbcwq:1,2017-03-28T18:45:00Z,30.3836,-88.4364,0.0,25.7,2 
NERRS,ioos:station:NOAA.NERRS:gndbcwq:1,2017-03-28T20:45:00Z,30.3836,-88.4364,0.0,27.2,2 
NERRS,ioos:station:NOAA.NERRS:gndbcwq:1,2017-03-29T12:45:00Z,30.3836,-88.4364,0.0,24.7,2 
NERRS,ioos:station:NOAA.NERRS:gndbcwq:1,2017-03-29T15:45:00Z,30.3836,-88.4364,0.0,25.0,2 
NERRS,ioos:station:NOAA.NERRS:gndbcwq:1,2017-03-29T16:45:00Z,30.3836,-88.4364,0.0,25.3,2 
NERRS,ioos:station:NOAA.NERRS:gndbcwq:1,2017-03-29T17:45:00Z,30.3836,-88.4364,0.0,26.2,2 
NERRS,ioos:station:NOAA.NERRS:gndbcwq:1,2017-03-29T20:45:00Z,30.3836,-88.4364,0.0,27.9,2 
NERRS,ioos:station:NOAA.NERRS:gndbcwq:1,2017-03-29T21:45:00Z,30.3836,-88.4364,0.0,28.0,2 
NERRS,ioos:station:NOAA.NERRS:gndbcwq:1,2017-03-30T12:45:00Z,30.3836,-88.4364,0.0,25.1,2 
NERRS,ioos:station:NOAA.NERRS:gndbcwq:1,2017-03-30T13:45:00Z,30.3836,-88.4364,0.0,25.1,2 
NERRS,ioos:station:NOAA.NERRS:gndbcwq:1,2017-03-30T14:45:00Z,30.3836,-88.4364,0.0,25.2,2 
NERRS,ioos:station:NOAA.NERRS:gndbcwq:1,2017-03-30T15:45:00Z,30.3836,-88.4364,0.0,25.1,2 
NERRS,ioos:station:NOAA.NERRS:gndbcwq:1,2017-03-30T16:45:00Z,30.3836,-88.4364,0.0,25.0,2 
NERRS,ioos:station:NOAA.NERRS:gndbcwq:1,2017-03-30T17:45:00Z,30.3836,-88.4364,0.0,25.0,2 
NERRS,ioos:station:NOAA.NERRS:gndbcwq:1,2017-03-30T18:45:00Z,30.3836,-88.4364,0.0,25.1,2 
NERRS,ioos:station:NOAA.NERRS:gndbcwq:1,2017-03-30T20:15:00Z,30.3836,-88.4364,0.0,25.1,2 
NERRS,ioos:station:NOAA.NERRS:gndbcwq:1,2017-03-31T11:45:00Z,30.3836,-88.4364,0.0,22.7,2 
NERRS,ioos:station:NOAA.NERRS:gndbcwq:1,2017-03-31T12:45:00Z,30.3836,-88.4364,0.0,22.8,2 
NERRS,ioos:station:NOAA.NERRS:gndbcwq:1,2017-03-31T13:45:00Z,30.3836,-88.4364,0.0,23.3,2 
NERRS,ioos:station:NOAA.NERRS:gndbcwq:1,2017-03-31T14:45:00Z,30.3836,-88.4364,0.0,23.5,2 
NERRS,ioos:station:NOAA.NERRS:gndbcwq:1,2017-03-31T15:45:00Z,30.3836,-88.4364,0.0,23.6,2 
NERRS,ioos:station:NOAA.NERRS:gndbcwq:1,2017-03-31T16:45:00Z,30.3836,-88.4364,0.0,23.7,2 
NERRS,ioos:station:NOAA.NERRS:gndbcwq:1,2017-03-31T17:45:00Z,30.3836,-88.4364,0.0,23.9,2 
NERRS,ioos:station:NOAA.NERRS:gndbcwq:1,2017-03-31T18:45:00Z,30.3836,-88.4364,0.0,24.8,2 
NERRS,ioos:station:NOAA.NERRS:gndbcwq:1,2017-03-31T19:45:00Z,30.3836,-88.4364,0.0,25.6,2 
NERRS,ioos:station:NOAA.NERRS:gndbcwq:1,2017-03-31T20:45:00Z,30.3836,-88.4364,0.0,25.8,2 
 
DISCLAIMER: The Gulf of Mexico Coastal and Ocean Observing (GCOOS) Data Portal aggregates data from the regional data providers for the convenience of all data users. Data published on this website should not be used for navigation or certain other uses as we cannot guarantee data accuracy or availability. The data and delivery services are provided 'as is' without warranty of any kind. Data Source: Gulf of Mexico Coastal Ocean Observing System Data Portal (http://data.gcoos.org/) 
